Location: Karlsruhe
(49.0131°N, 8.3874°E)
Time: 11:32:09
(UTC+01:00)

ISS - Pass Details

Date: 13 January 2018
Orbit: 402 x 407 km, 51.6° (Epoch: 22 January)

Event Time Altitude Azimuth Distance (km) Brightness Sun altitude
Exits shadow 07:06:27 13° 256° (WSW) 1,282 -1.8 -11.1°
Maximum altitude 07:08:06 18° 220° (SW) 1,068 -1.9 -10.9°
Drops below altitude 10° 07:10:26 10° 175° (S) 1,461 -0.7 -10.5°
Sets 07:12:55 0° 156° (SSE) 2,317 0.8 -10.1°
